Other Public Products
Issued by NWS Grand Forks, ND

Home | Current Version | Previous Version | Graphics & Text | Print | Product List | Glossary On
Versions: 1 2 3 4 5 6 7 8 9 10 11 12 13 14 15 16 17 18 19 20 21 22 23 24 25 26 27 28 29 30 31 32 33 34 35 36 37 38 39 40 41 42 43 44 45 46 47 48 49 50
000
FPUS83 KFGF 221710
OPUFGF
PRAIRIE TO PINES WEATHER ROUNDUP
NATIONAL WEATHER SERVICE EASTERN NORTH DAKOTA/GRAND FORKS ND
1200 PM CDT MON SEP 22 2014

 **SATELLITE DATA USED TO AUGMENT SKY COVER AT AUTOMATED STATIONS**
 *****  WEATHER ACROSS EASTERN NORTH DAKOTA  *****

CITY           SKY/WX    TMP DP  RH WIND       PRES   REMARKS
GRAND FORKS    SUNNY     72  50  45 SW10      30.12F
GRAND FORKS AF SUNNY     73  50  43 SW8       30.12F
GRAND CITY NWS   N/A     73 N/A N/A W5          N/A
BUXTON         NOT AVBL
DEVILS LAKE    SUNNY     68  46  45 SW8       30.09F
FARGO          SUNNY     69  50  50 SW10      30.16F
WAHPETON ARPT  SUNNY     70  46  43 W12       30.18F
$$

 *****  WEATHER ACROSS CENTRAL AND WESTERN NORTH DAKOTA  *****

CITY           SKY/WX    TMP DP  RH WIND       PRES   REMARKS
JAMESTOWN      SUNNY     71  49  45 S8        30.12F
BISMARCK       SUNNY     72  47  40 SE15      30.08F
MINOT          SUNNY     74  41  30 SE15      30.04F
MINOT AFB      SUNNY     73  45  35 SE12      30.03F
GARRISON         N/A     68  48  48 S7        30.06F
WILLISTON      SUNNY     69  43  38 S6        29.99F
DICKINSON      SUNNY     69  46  43 SE15      30.01F
HETTINGER      MOSUNNY   67  42  40 SE16      30.04F
$$

 *****  OTHER OBSERVATIONS NORTHEAST NORTH DAKOTA  *****

CITY           SKY/WX    TMP DP  RH WIND       PRES   REMARKS
WALHALLA         N/A     72  48  43 SW9       30.07F
LANGDON        FAIR      72  46  40 SW13      30.10F
CAVALIER       FAIR      72  48  43 W7        30.08F
GRAFTON        FAIR      72  50  46 SW8       30.10F
CANDO          FAIR      72  45  37 SW7       30.10F
FORT TOTTEN      N/A     73  49  43 SW6       29.95
ROLLA          FAIR      66  45  45 SW10      30.10F
RUGBY          FAIR      72  46  40 SW12      30.08F
 ***** THE ABOVE OBSERVATIONS ARE NON NWS ARE NOT QUALITY
        CONTROLLED AND MAY MIS-REPORT RAIN FOR SNOW...
$$

 *****  OTHER OBSERVATIONS SOUTHEAST NORTH DAKOTA *****

CITY           SKY/WX    TMP DP  RH WIND       PRES   REMARKS
COOPERSTOWN    NOT AVBL
VALLEY CITY    FAIR      68  50  52 SW12      30.15F
OAKES            N/A     68  50  52 S14       30.16F
GWINNER        SUNNY     70  48  46 SW12      30.18F
SHEYENNE NWR     N/A     69  50  49 SW10      29.95S
BUFFALO        NOT AVBL
WYNDMERE       NOT AVBL
 ***** THE ABOVE OBSERVATIONS ARE NON NWS ARE NOT QUALITY
       CONTROLLED AND MAY MIS-REPORT RAIN FOR SNOW...
$$

  *****  WEATHER ACROSS NORTHERN MINNESOTA  *****

CITY           SKY/WX    TMP DP  RH WIND       PRES   REMARKS
FLAG ISLAND    SUNNY     66  48  52 SW8       30.06S
WARROAD        SUNNY     66  54  63 SW10      30.10F
ROSEAU         SUNNY     70  52  52 W7        30.10F
HALLOCK        SUNNY     70  52  52 SW8       30.09F
THF RVR FALLS  SUNNY     66  50  55 SW7       30.14F
HALSTAD          N/A     68  46  45 SW6         N/A
FOSSTON        SUNNY     66  50  55 SW9       30.16F
BAUDETTE       SUNNY     68  50  52 SW9       30.10F
WASKISH        SUNNY     63  54  72 SW5       30.14F
CROOKSTON      SUNNY     64  54  68 SW8       30.15S
$$
  *****  WEATHER ACROSS CENTRAL AND WEST MINNESOTA  *****

CITY           SKY/WX    TMP DP  RH WIND       PRES   REMARKS
BEMIDJI        SUNNY     67  49  52 W10       30.17S
PARK RAPIDS    SUNNY     68  49  50 W7        30.19F
WADENA         SUNNY     66  50  55 SW8       30.20F
DETROIT LAKES  SUNNY     64  50  59 SW8       30.20S
MOORHEAD       SUNNY     68  52  56 W9        30.17F
FERGUS FALLS   SUNNY     66  46  48 SW6       30.20F
ELBOW LAKE     FAIR      67  52  58 W6        30.20F
MORRIS MN      SUNNY     68  54  60 SW8       30.20F
STAPLES        SUNNY     66  48  52 W7        30.20F
WHEATON        SUNNY     68  48  49 SW8       30.21F
$$
  *****  WEATHER ELSEWHERE ACROSS MINNESOTA  *****

CITY           SKY/WX    TMP DP  RH WIND       PRES   REMARKS
DULUTH         SUNNY     65  50  58 W15       30.18F
INTRNTL FALLS  SUNNY     66  51  58 W13G18    30.10F
ELY            SUNNY     63  48  59 W9G17     30.13F
CLOQUET        SUNNY     64  48  55 W13G18    30.19F
BRAINERD       SUNNY     64  49  57 W8        30.21F
HIBBING        SUNNY     66  51  58 W9        30.17F
ALEXANDRIA     SUNNY     65  51  60 SW6       30.23F
SAINT CLOUD    SUNNY     69  50  50 SW9       30.23F
MINNEAPOLIS    MOSUNNY   65  51  60 W6        30.26F
$$

  *****  WEATHER ACROSS SOUTH DAKOTA  *****

CITY           SKY/WX    TMP DP  RH WIND       PRES   REMARKS
SIOUX FALLS    MOSUNNY   68  47  46 SW9       30.25F
BROOKINGS      NOT AVBL
WATERTOWN      SUNNY     69  46  43 SW13      30.21F
HURON          SUNNY     70  47  43 MISG      30.20F
SISSETON         N/A     71  48  43 W13       30.18F
ABERDEEN       SUNNY     70  48  45 S10       30.17F
MITCHELL       MOSUNNY   69  49  48 S12       30.23F
PIERRE         MOSUNNY   71  46  40 SE15      30.11F
MOBRIDGE       SUNNY    N/A N/A N/A S16       30.08F
RAPID CITY     SUNNY     69  45  41 S20       30.03F
$$

  *****  SOME WEATHER IN NEARBY STATES *****

CITY           SKY/WX    TMP DP  RH WIND       PRES   REMARKS
GLASGOW MT     SUNNY     66  41  40 SE15      29.93S
GREAT FALLS MT MOSUNNY   72  47  40 SW16      29.93F
CHEYENNE WY    MOSUNNY   69  53  56 S12       30.21S
SCOTTSBLUFF NE LGT RAIN  58  53  84 SE8       30.13F
OMAHA NE       MOSUNNY   67  50  54 S6        30.31F
DES MOINES IA  MOSUNNY   67  50  54 CALM      30.31F
DAVENPORT IA   SUNNY     62  40  44 VRB3      30.33S
CHICAGO IL     MOSUNNY   55  41  59 NE5       30.29S
EAU CLAIRE WI  MOSUNNY   63  50  62 NW9       30.25F
LA CROSSE WI   SUNNY     67  49  52 SW7       30.26F
$$

  *****  SOME NATIONAL WEATHER *****

CITY           SKY/WX    TMP DP  RH WIND       PRES   REMARKS
LA GUARDIA NY  PTSUNNY   68  50  52 NW17G24   29.89R
RALEIGH NC     PTSUNNY   73  50  44 NE8       30.06S
ATLANTA GA     PTSUNNY   77  52  41 NW12      30.07F
NEW ORLEANS LA MOSUNNY   89  67  47 NE8G17    30.04F HX  92
OKLAHOMA CITY  MOSUNNY   75  47  36 E10       30.29F
ALBUQUERQUE NM PTSUNNY   72  56  57 NW5       30.33S
SALT LAKE CITY MOSUNNY   68  54  60 SE5       30.16F
LOS ANGELES CA MOSUNNY   70  63  78 W7        30.00R
BOISE ID       SUNNY     71  54  54 SE7       30.07R
SEATTLE WA     CLOUDY    63  57  81 S5        30.01S
$$

*** WEATHER ACROSS MANITOBA...SASKATCHEWAN AND ONTARIO ***
                ***ONTARIO***

CITY           SKY/WX    TMP DP  RH WIND       PRES   REMARKS
GERALDTON      PTSUNNY   57  50  77 W10       29.94F
THUNDER BAY    SUNNY     70  52  52 W10G18    30.04F
SIOUX LOOKOUT  MOSUNNY   66  50  55 W12G17    30.00F
TORONTO        PTSUNNY   55  39  54 NW16      30.08R
BIG TROUT LK   CLOUDY    55  50  82 W7        29.82R
PICKLE LAKE    MOSUNNY   66  48  52 W14       29.87F
DRYDEN         SUNNY     66  50  55 W15G21    30.02F
KENORA         NOT AVBL
$$
                *** MANITOBA***

CITY           SKY/WX    TMP DP  RH WIND       PRES   REMARKS
BRANDON        NOT AVBL
DAUPHIN        SUNNY     75  43  31 W13       29.98F
ISLAND LAKE    MOSUNNY   63  52  67 W6        29.86S
PILOT MOUND      N/A     72  45  37 SW10        N/A
THE PAS        MOSUNNY   72  50  46 W5        29.89S
THOMPSON       PTSUNNY   64  50  59 NE7       29.89R
WINNIPEG       MOSUNNY   70  50  49 SW9       30.04F
LYNN LAKE      SUNNY     63  50  63 E8        29.86S
GILLAM         DRIZZLE   46  46 100 NE10      29.94  FOG
$$
                ***SASKATCHEWAN***

CITY           SKY/WX    TMP DP  RH WIND       PRES   REMARKS
ESTEVAN        SUNNY     70  50  49 SE2       30.01F
KINDERSLEY     MOSUNNY   68  48  49 SW6       29.83F
LLOYDMINSTER   SUNNY     64  48  55 S7        29.77S
PRINCE ALBERT  SUNNY     68  48  49 S8        29.86F
REGINA         SUNNY     66  45  45 SE12      29.96F
YORKTON        SUNNY     68  45  42 S6        29.99F


USA.gov is the U.S. government's official web portal to all federal, state and local government web resources and services.